Regional Weather Roundup
Issued by NWS

Home | Current Version | Previous Version | Text Only | Print | Product List | Glossary On
Versions: 1 2 3 4 5 6 7 8 9 10 11 12 13 14 15 16 17 18 19 20 21 22 23 24 25 26 27 28 29 30 31 32 33 34 35 36 37 38 39 40 41 42 43 44 45 46 47 48 49 50
000
ASPQ40 PGUM 272212
RWRPQ
WEATHER ROUNDUP FOR THE MARIANAS AND MICRONESIA
NATIONAL WEATHER SERVICE TIYAN GU
800 AM CHST SUN DEC 28 2014

GUZ001>004-272300-
MARIANA ISLANDS-

CITY           SKY/WX    TMP DP  RH WIND       PRES   REMARKS
GUAM AIRPORT   PTSUNNY   79  75  89 SE5       29.88R
ANDERSEN AFB   LGT RAIN  75  73  94 E15       29.89R FOG
ROTA AIRPORT   PTSUNNY   79  75  89 E13       29.89R
TINIAN AP      MOSUNNY   81  75  83 E14       29.88R
SAIPAN AP      MOSUNNY   81  75  83 E17G25    29.89R

$$

PMZ161-272300-
REPUBLIC OF PALAU-

CITY           SKY/WX    TMP DP  RH WIND       PRES   REMARKS
KOROR AP       NOT AVBL
KOROR WSO      CLOUDY    81  75  83 SE10      29.76R

$$

PMZ171>174-272300-
FEDERATED STATES OF MICRONESIA-

CITY           SKY/WX    TMP DP  RH WIND       PRES   REMARKS
YAP AIRPORT    PTSUNNY   82  77  83 VRB6      29.79R HX  91
CHUUK AP       CLOUDY    82  75  78 VRB6      29.81R
POHNPEI AP     NOT AVBL
POHNPEI WSO    CLOUDY    84  75  74 NE12      29.83R HX  92
KOSRAE AP      NOT AVBL

$$

PMZ181-272300-
REPUBLIC OF THE MARSHALL ISLANDS-

CITY           SKY/WX    TMP DP  RH WIND       PRES   REMARKS
KWAJALEIN AP   MOSUNNY   84  70  61 E18       29.82S
MAJURO AP      MOSUNNY   86  75  70 E14       29.77F HX  95
MAJURO WSO     PTSUNNY   86  75  70 E17       29.78F HX  95

$$



USA.gov is the U.S. government's official web portal to all federal, state and local government web resources and services.